Weather in Ak-Durug

Russia / Tyva Republic     51°23′46″N   92°11′52″E
temp.,
°C
wind,
m/s
gust,
m/s
humid.,
%
clouds,
%
prec.,
mm/h
press.,
hPa
HPBL,
m
5 march, fri
fri501:00−16wnw119664 0.1 103120
04:00−17wnw119896 0.0 103020
07:00−19wnw119898 0.1 103020
10:00−15n119499 0.0 1028111
13:00−13ene1190100 0.1 1026263
16:00−11ese2188100 0.0 1024188
19:00−14w0194100 0.1 102820
22:00−14w238362 0.0 103122
6 march, sat
sat601:00−16nw118031 0.0 103420
04:00−18w119333 0.0 103320
07:00−18wnw129457 0.0 103420
10:00−14n119296 0.0 103290
13:00−12e219097 0.0 1029232
16:00−11e1189100 0.0 1026203
19:00−17wsw119696 0.0 102720
22:00−17wnw129042 0.0 102720
7 march, sun
sun701:00−18wnw118423 0.0 102720
04:00−19nw118415 0.0 102520
07:00−19wnw018253 0.0 102720
10:00−14ne118287 0.0 102654
13:00−12e218687 0.0 1025183
16:00−11e118498 0.0 1024180
19:00−14sw018799 0.0 102720
22:00−16wsw128342 0.0 102920
8 march, mon
mon801:00−16w118226 0.0 103020
04:00−17wnw118055 0.0 102920
07:00−19nnw018432 0.0 103120
10:00−14nnw008325 0.0 102875
13:00−10e118621 0.0 1026222
16:00−10e118331 0.0 1024183
19:00−15wnw118816 0.0 102420
22:00−15wnw118167 0.0 102520
9 march, tue
tue901:00−15w118183 0.0 102520
04:00−14nnw1182100 0.0 102620
07:00−15wnw118098 0.0 102820
10:00−11nw008549 0.0 102853
13:00−8e218037 0.0 1028179
16:00−7ene11820 0.0 1027152
19:00−12wsw11830 0.0 102821
22:00−13w11780 0.0 102921